Regional Weather Roundup
Issued by NWS

Home | Current Version | Previous Version | Graphics & Text | Print | Product List | Glossary On
Versions: 1 2 3 4 5 6 7 8 9 10 11 12 13 14 15 16 17 18 19 20 21 22 23 24 25 26 27 28 29 30 31 32 33 34 35 36 37 38 39 40 41 42 43 44 45 46 47 48 49 50
000
ASUS43 KMKX 271259
RWRWI

WISCONSIN REGIONAL WEATHER ROUNDUP
NATIONAL WEATHER SERVICE MILWAUKEE/SULLIVAN WI
700 AM CST FRI FEB 27 2015

NOTE: "FAIR" INDICATES FEW OR NO CLOUDS BELOW 12,000 FEET WITH NO
SIGNIFICANT WEATHER AND/OR OBSTRUCTIONS TO VISIBILITY.

WIZ001-002-006>008-014>016-023>028-271400-
NORTHWEST WISCONSIN

CITY           SKY/WX    TMP DP  RH WIND       PRES   REMARKS
SUPERIOR ARPT  CLEAR    -10 -15  80 SW8       30.48F WCI -27
ASHLAND        CLEAR     -7 -14  71 SW7       30.45S WCI -21
HAYWARD        PTCLDY   -19 -25  73 CALM      30.43R
SIREN          PTCLDY   -10 -16  77 SW3       30.49R
CUMBERLAND     PTCLDY   -13 -18  77 CALM      30.45R
RICE LAKE      PTCLDY   -14 -19  79 CALM      30.48S
CHETEK         PTCLDY   -15 -19  80 CALM      30.48S
LADYSMITH      PTCLDY   -18 -24  75 CALM      30.45S
EAU CLAIRE     NOT AVBL
MENOMONIE      PTCLDY    -6 -12  75 CALM      30.52R
NEW RICHMOND   CLEAR    -10 -14  81 CALM      30.50S
OSCEOLA        CLEAR    -12 -17  79 CALM      30.54S
$$

WIZ003>005-009-010-017-018-271400-
NORTH CENTRAL WISCONSIN

CITY           SKY/WX    TMP DP  RH WIND       PRES   REMARKS
MANITOWISH WTR PTCLDY   -24 -31  70 CALM      30.34S
ARBOR VITAE    PTCLDY   -16 -23  71 CALM      30.34S
WOODRUFF       PTCLDY   -16 -23  71 CALM      30.34S
RHINELANDER    PTCLDY   -16 -20  82 W7        30.35S WCI -32
EAGLE RIVER    PTCLDY   -21 -28  70 CALM      30.33S
LAND O LAKES   PTCLDY   -30 -38  66 CALM      30.33S
PHILLIPS       PTCLDY   -21 -26  74 CALM      30.38S
TOMAHAWK       PTCLDY   -22 -28  72 CALM      30.39R
MEDFORD        PTCLDY   -12 -16  81 CALM      30.40R
MERRILL        PTCLDY   -21 -28  72 CALM      30.40S
$$

WIZ029-030-035-036-043>047-271400-
CENTRAL WISCONSIN

CITY           SKY/WX    TMP DP  RH WIND       PRES   REMARKS
WAUSAU         CLEAR     -7 -14  71 NW6       30.42R WCI -20
MOSINEE        CLEAR    -11 -17  77 SW3       30.43R
MARSHFIELD     CLEAR     -8 -14  74 W7        30.44R WCI -23
STEVENS POINT  CLEAR    -19 -24  75 CALM      30.46R
WAUPACA        CLEAR     -3 -11  66 W5        30.48S WCI -13
WAUTOMA        NOT AVBL
WISC RAPIDS    CLEAR    -10 -17  71 CALM      30.50R
CAMP DOUGLAS   NOT AVBL
$$

WIZ011>013-019>022-031-037>040-048>050-271400-
NORTHEAST WISCONSIN

CITY           SKY/WX    TMP DP  RH WIND       PRES   REMARKS
ANTIGO         PTCLDY   -13 -18  78 CALM      30.37S
SHAWANO        CLEAR     -4 -12  67 W5        30.47R WCI -14
OCONTO         CLEAR    -12 -17  80 CALM      30.47R
STURGEON BAY   CLEAR     -4 -11  71 SW5       30.46S WCI -15
GREEN BAY      CLEAR     -2  -9  72 SW3       30.49R
MANITOWOC      NOT AVBL
APPLETON       CLEAR     -4 -13  65 W10       30.47R WCI -21
CLINTONVILLE   CLEAR     -6 -13  71 W3        30.47R
OSHKOSH        CLEAR     -3 -11  68 W6        30.49R WCI -15
$$

WIZ032>034-041-042-053>061-271400-
SOUTHWEST WISCONSIN

CITY           SKY/WX    TMP DP  RH WIND       PRES   REMARKS
LA CROSSE      CLEAR     -9 -15  75 S5        30.56R WCI -20
SPARTA         CLEAR    -20 -26  73 CALM      30.53R
VIROQUA        CLEAR     -9 -13  83 W5        30.47R WCI -21
BOSCOBEL       CLEAR    -15 -21  74 CALM      30.58R
PRAIRIE DU CHI CLEAR    -15 -22  72 CALM      30.58R
PLATTEVILLE    PTCLDY   -12 -17  80 W5        30.52R WCI -24
$$

WIZ056-057-062-063-064-067-068-271400-
SOUTH CENTRAL WISCONSIN

CITY           SKY/WX    TMP DP  RH WIND       PRES   REMARKS
REEDSBURG      CLEAR    -11 -16  79 CALM      30.50S
BARABOO/DELLS  CLEAR     -9 -15  76 CALM      30.49S
LONE ROCK      NOT AVBL
MINERAL POINT  PTCLDY    -8 -13  77 W3        30.49R
MADISON        FAIR      -4 -11  72 CALM      30.51R
MIDDLETON      FAIR      -4 -12  70 CALM      30.51R
WATERTOWN      CLEAR     -9 -15  77 CALM      30.50R
MONROE         PTCLDY    -6  -9  84 W12       30.48R WCI -24
JANESVILLE     CLEAR     -8 -13  77 CALM      30.52R
$$

WIZ051-052-058>065-066-070>072-271400-
SOUTHEAST WISCONSIN

CITY           SKY/WX    TMP DP  RH WIND       PRES   REMARKS
MILWAUKEE      CLEAR      1  -9  62 W9        30.51R WCI -14
WAUKESHA       CLEAR     -4 -11  71 W7        30.50R WCI -18
MILWAUKEE/TIMM CLEAR     -2  -9  71 W5        30.51R WCI -12
RACINE         CLEAR     -3 -11  68 W9        30.52R WCI -19
BURLINGTON       N/A    N/A N/A N/A MISG        N/A
KENOSHA        CLEAR     -5 -11  75 NW8       30.51R WCI -20
FOND DU LAC    CLEAR     -6 -13  71 CALM      30.50R
SHEBOYGAN      CLEAR     -4 -11  72 W7        30.49R WCI -18
WEST BEND      CLEAR     -2  -9  71 W3        30.48R
JUNEAU         CLEAR     -6 -12  77 SW3       30.50R
$$

LSZ147-162-271400-
LAKE SUPERIOR

STATION/POSITION TIME  TEMP    WIND        PRES    WAVE
                       AIR SEA DIR/SP/G            HT/PER
                 (UTC) (F)     (DEG/KT/KT) (MB)    (FT/S)
DEVILS ISLAND    1200    3     260/ 11/ 14 1032.2R
PORT WING        1200   -5     190/  7/  8 1031.5R
SAXON HARBOR     1240   -4     200/  8/ 11 1031.2R
$$

LMZ867-665-643>646-271400-
LAKE MICHIGAN

STATION/POSITION TIME  TEMP    WIND        PRES    WAVE
                       AIR SEA DIR/SP/G            HT/PER
                 (UTC) (F)     (DEG/KT/KT) (MB)    (FT/S)
NORTHPORT PIER   1228   -1     260/  4/  9 1030.5S
KEWAUNEE LAKESHO 1200          300/  7/  7 1030.5R
SHEBOYGAN LAKESH 1200    2     270/  9/ 10 1034.2R
PORT WASHINGTON  1240    1     300/  8/ 10 1033.9R
MILWAUKEE LAKESH 1200    3     300/  9/ 11   N/A
KENOSHA   LAKESH 1200    0     280/  8/ 10 1032.5R
$$

TC  - TEMPERATURE IN CELSIUS
VSB - VISIBILITY IN STATUTE MILES
WCI - WIND CHILL INDEX
HX  - HEAT INDEX




USA.gov is the U.S. government's official web portal to all federal, state and local government web resources and services.